Simultaneous Nadir Overpasses (SNOs) Predictions

Prediction of SNOs between AQUA and GOES-15 Satellite Orbit:

Table of predicted SNOs for the next 14.0 days since TLE Epoch: 3/30/2017
Index Date Time (AQUA) AQUA Lat,Lon GOES-15 Lat,Lon Distance(km) Time Diff (sec)
1 04/01/2017 22:23:19 0.66,-132.00 -0.05,-135.23 367.71 80
2 04/02/2017 10:44:34 0.43,-137.16 0.05,-135.23 219.04 80
3 04/04/2017 10:32:19 -0.16,-134.18 0.06,-135.28 123.90 80
4 04/04/2017 22:53:43 -0.90,-139.38 -0.06,-135.31 462.22 80
5 04/06/2017 10:20:05 -0.81,-131.22 0.06,-135.33 466.54 80
6 04/06/2017 22:41:28 -0.30,-136.41 -0.06,-135.36 119.64 80
7 04/08/2017 22:29:14 0.38,-133.45 -0.06,-135.40 222.77 80
8 04/09/2017 10:50:28 0.72,-138.61 0.06,-135.39 364.81 80
9 04/11/2017 10:38:14 0.10,-135.63 0.06,-135.43 22.76 80
10 04/13/2017 10:25:59 -0.53,-132.67 0.06,-135.47 318.82 80




NCC Satellite Simultaneous Nadir Overpasses (SNOs) Prediction Service
